TimeCDT,TemperatureF,Dew PointF,Humidity,Sea Level PressureIn,VisibilityMPH,Wind Direction,Wind SpeedMPH,Gust SpeedMPH,PrecipitationIn,Events,Conditions,WindDirDegrees,DateUTC
12:15 AM,55.4,41.0,58,30.02,10.0,SSE,12.7,17.3,N/A,,Clear,160,2013-09-17 05:15:00
12:35 AM,55.4,41.0,58,30.02,10.0,South,10.4,16.1,N/A,,Clear,170,2013-09-17 05:35:00
12:55 AM,53.6,41.0,62,30.01,10.0,South,11.5,17.3,N/A,,Clear,170,2013-09-17 05:55:00
1:15 AM,53.6,41.0,62,30.01,10.0,SSE,10.4,-,N/A,,Clear,160,2013-09-17 06:15:00
1:35 AM,51.8,41.0,67,30.01,10.0,South,10.4,16.1,N/A,,Clear,170,2013-09-17 06:35:00
1:55 AM,51.8,41.0,67,30.01,10.0,South,11.5,-,N/A,,Clear,170,2013-09-17 06:55:00
2:15 AM,51.8,41.0,67,30.00,10.0,South,11.5,-,N/A,,Clear,170,2013-09-17 07:15:00
2:35 AM,51.8,41.0,67,30.00,10.0,South,12.7,18.4,N/A,,Clear,170,2013-09-17 07:35:00
2:55 AM,50.0,42.8,76,29.99,10.0,South,11.5,17.3,N/A,,Clear,170,2013-09-17 07:55:00
3:15 AM,50.0,42.8,76,29.99,10.0,SSE,10.4,-,N/A,,Clear,160,2013-09-17 08:15:00
3:35 AM,50.0,44.6,82,29.98,10.0,SSE,10.4,16.1,N/A,,Clear,160,2013-09-17 08:35:00
3:55 AM,50.0,44.6,82,29.97,10.0,South,9.2,-,N/A,,Clear,170,2013-09-17 08:55:00
4:15 AM,50.0,44.6,82,29.96,10.0,South,12.7,17.3,N/A,,Clear,170,2013-09-17 09:15:00
4:35 AM,50.0,44.6,82,29.96,10.0,South,13.8,19.6,N/A,,Clear,180,2013-09-17 09:35:00
4:55 AM,50.0,44.6,82,29.95,10.0,South,11.5,18.4,N/A,,Clear,170,2013-09-17 09:55:00
5:15 AM,50.0,44.6,82,29.94,10.0,South,12.7,17.3,N/A,,Clear,170,2013-09-17 10:15:00
5:35 AM,50.0,46.4,87,29.94,10.0,South,12.7,17.3,N/A,,Clear,170,2013-09-17 10:35:00
5:55 AM,50.0,46.4,87,29.93,10.0,South,13.8,-,N/A,,Clear,170,2013-09-17 10:55:00
6:15 AM,50.0,46.4,87,29.93,10.0,SSE,11.5,-,N/A,,Clear,160,2013-09-17 11:15:00
6:35 AM,50.0,46.4,87,29.93,10.0,South,13.8,-,N/A,,Clear,170,2013-09-17 11:35:00
6:55 AM,50.0,46.4,87,29.92,10.0,South,12.7,18.4,N/A,,Clear,170,2013-09-17 11:55:00
7:15 AM,50.0,46.4,87,29.92,10.0,South,15.0,18.4,N/A,,Clear,170,2013-09-17 12:15:00
7:35 AM,50.0,46.4,87,29.92,10.0,South,11.5,-,N/A,,Clear,170,2013-09-17 12:35:00
7:55 AM,50.0,46.4,87,29.91,10.0,South,12.7,-,N/A,,Clear,170,2013-09-17 12:55:00
8:15 AM,51.8,48.2,88,29.90,10.0,South,12.7,20.7,N/A,,Clear,180,2013-09-17 13:15:00
8:35 AM,53.6,48.2,82,29.90,10.0,South,16.1,23.0,N/A,,Clear,180,2013-09-17 13:35:00
8:55 AM,53.6,48.2,82,29.89,10.0,South,17.3,23.0,N/A,,Clear,180,2013-09-17 13:55:00
9:15 AM,55.4,48.2,77,29.89,10.0,South,16.1,25.3,N/A,,Partly Cloudy,180,2013-09-17 14:15:00
9:35 AM,55.4,50.0,82,29.89,10.0,South,15.0,21.9,N/A,,Mostly Cloudy,190,2013-09-17 14:35:00
9:55 AM,55.4,50.0,82,29.89,10.0,South,13.8,20.7,N/A,,Overcast,180,2013-09-17 14:55:00
10:15 AM,57.2,50.0,77,29.88,10.0,South,19.6,24.2,N/A,,Overcast,170,2013-09-17 15:15:00
10:35 AM,57.2,50.0,77,29.87,10.0,South,13.8,21.9,N/A,,Overcast,170,2013-09-17 15:35:00
10:55 AM,57.2,51.8,82,29.87,10.0,South,15.0,25.3,N/A,,Overcast,180,2013-09-17 15:55:00
11:15 AM,59.0,51.8,77,29.86,10.0,South,20.7,26.5,N/A,,Overcast,170,2013-09-17 16:15:00
11:35 AM,60.8,53.6,77,29.86,10.0,South,20.7,28.8,N/A,,Overcast,180,2013-09-17 16:35:00
11:55 AM,60.8,53.6,77,29.86,10.0,South,18.4,29.9,N/A,,Overcast,190,2013-09-17 16:55:00
12:15 PM,60.8,53.6,77,29.86,10.0,South,18.4,23.0,N/A,,Overcast,170,2013-09-17 17:15:00
12:35 PM,62.6,53.6,72,29.84,10.0,South,21.9,27.6,N/A,,Overcast,190,2013-09-17 17:35:00
12:55 PM,62.6,53.6,72,29.83,10.0,South,18.4,27.6,N/A,,Overcast,180,2013-09-17 17:55:00
1:15 PM,64.4,53.6,68,29.82,10.0,South,18.4,27.6,N/A,,Overcast,180,2013-09-17 18:15:00
1:35 PM,62.6,53.6,72,29.82,10.0,South,17.3,27.6,N/A,,Overcast,180,2013-09-17 18:35:00
1:55 PM,62.6,55.4,77,29.82,10.0,South,20.7,26.5,N/A,,Overcast,170,2013-09-17 18:55:00
2:15 PM,62.6,55.4,77,29.82,10.0,South,16.1,23.0,N/A,,Overcast,180,2013-09-17 19:15:00
2:35 PM,62.6,55.4,77,29.81,10.0,South,18.4,27.6,N/A,,Overcast,170,2013-09-17 19:35:00
2:55 PM,64.4,55.4,73,29.80,10.0,South,17.3,24.2,N/A,,Overcast,190,2013-09-17 19:55:00
3:15 PM,64.4,55.4,73,29.80,10.0,South,18.4,27.6,N/A,,Overcast,180,2013-09-17 20:15:00
3:35 PM,64.4,55.4,73,29.79,10.0,South,15.0,25.3,N/A,,Overcast,180,2013-09-17 20:35:00
3:55 PM,64.4,55.4,73,29.79,9.0,South,19.6,27.6,N/A,,Overcast,190,2013-09-17 20:55:00
4:15 PM,64.4,55.4,73,29.78,10.0,South,17.3,25.3,N/A,,Overcast,180,2013-09-17 21:15:00
4:35 PM,64.4,55.4,73,29.78,10.0,South,17.3,-,N/A,,Overcast,170,2013-09-17 21:35:00
4:55 PM,62.6,55.4,77,29.78,10.0,South,15.0,23.0,N/A,,Overcast,170,2013-09-17 21:55:00
5:15 PM,64.4,55.4,73,29.77,10.0,South,17.3,21.9,N/A,,Overcast,180,2013-09-17 22:15:00
5:35 PM,64.4,55.4,73,29.77,10.0,South,13.8,20.7,N/A,,Overcast,180,2013-09-17 22:35:00
5:55 PM,64.4,55.4,73,29.77,10.0,South,13.8,-,N/A,,Overcast,170,2013-09-17 22:55:00
6:15 PM,64.4,55.4,73,29.77,10.0,South,13.8,20.7,N/A,,Overcast,180,2013-09-17 23:15:00
6:35 PM,64.4,57.2,77,29.76,9.0,South,13.8,20.7,N/A,,Overcast,170,2013-09-17 23:35:00
6:55 PM,64.4,57.2,77,29.76,10.0,South,12.7,-,N/A,,Overcast,170,2013-09-17 23:55:00
7:15 PM,64.4,57.2,77,29.75,10.0,South,13.8,-,N/A,,Overcast,170,2013-09-18 00:15:00
7:35 PM,64.4,57.2,77,29.74,9.0,South,11.5,16.1,N/A,,Overcast,170,2013-09-18 00:35:00
7:55 PM,62.6,57.2,82,29.74,9.0,South,10.4,17.3,N/A,,Overcast,170,2013-09-18 00:55:00
8:15 PM,62.6,57.2,82,29.75,10.0,South,10.4,17.3,N/A,,Overcast,170,2013-09-18 01:15:00
8:35 PM,62.6,57.2,82,29.76,10.0,South,15.0,18.4,N/A,,Overcast,170,2013-09-18 01:35:00
8:55 PM,62.6,57.2,82,29.76,10.0,South,11.5,20.7,N/A,,Overcast,170,2013-09-18 01:55:00
9:15 PM,62.6,57.2,82,29.76,10.0,South,13.8,18.4,N/A,,Overcast,170,2013-09-18 02:15:00
9:35 PM,62.6,57.2,82,29.76,10.0,South,12.7,19.6,N/A,,Overcast,170,2013-09-18 02:35:00
9:55 PM,62.6,57.2,82,29.76,10.0,South,12.7,-,N/A,,Mostly Cloudy,170,2013-09-18 02:55:00
10:15 PM,62.6,57.2,82,29.76,10.0,South,10.4,-,N/A,,Scattered Clouds,170,2013-09-18 03:15:00
10:35 PM,62.6,57.2,82,29.76,10.0,South,10.4,-,N/A,,Clear,170,2013-09-18 03:35:00
11:15 PM,60.8,57.2,88,29.75,10.0,South,10.4,-,N/A,,Clear,170,2013-09-18 04:15:00
11:35 PM,60.8,57.2,88,29.75,10.0,South,10.4,-,N/A,,Clear,170,2013-09-18 04:35:00
11:55 PM,60.8,57.2,88,29.74,10.0,SSE,10.4,-,N/A,,Clear,160,2013-09-18 04:55:00